DELTA 1 DEB, 42631

Orbit data source: Space-Track

DELTA 1 DEB, 42631 is space debris in SSO originally from a launch on Thu, 12 Jun 1975 UTC launched from the Air Force Western Test Range (AFWTR). Debris objects in space refer to the collection of defunct objects orbiting the Earth. Examples of debris include non-operational satellites, rocket bodies, and fragments generated from explosions, collisions, or faulty payload assembly.

Loading next visibility...
Identifier
42631, 1975-052LQ
Orbit
SSO
Country
Flag of USUS
Related business
Manufacturer
Unknown
Mission
Spacecraft
Bus & Motor
Unknown
Mass
Unknown
Launch date (UTC)
1975-06-12 (51 years ago)
Launch vehicle
Unknown
Launch site
Air Force Western Test Range (AFWTR)
Object type
Payload
Rocket body
Debris
Shape & HBR
Unknown shape, 0.1 m
Radar Cross Section
Small (<0.1 m²)

Expand to show TLE details & history
Last TLE update: 3 days ago

TLE from 3 days ago
0 DELTA 1 DEB
1 42631U 75052LQ  26170.51426608  .00000062  00000-0  15100-3 0  9991
2 42631  99.7555  81.9555 0043322 279.4135  80.2107 13.56388263622335
Epoch: 2026-06-19T12:20Z
TLE epoch observation values (Epoch: 2026-06-19T12:20:32.589Z)
Latitude
0.00002°
Longitude
-10.92244°
Altitude
1,046.303 km
Speed
7.331 km/s
True Right ascension
05h 27m 49s
True Declination
0° 00' 00"
Sunlit
Object was in daylight at epoch
Visualization orbit readout
Latitude
Unknown
Longitude
Unknown
Altitude
Unknown
Speed
Unknown
Apparent Right ascension
Unknown
Apparent Declination
Unknown
Sunlit
N/A
Visualization observer readout
Local Sidereal Time
14:41:03
Azimuth
Unknown
Elevation
Unknown
Doppler factor
Unknown
Orbital elements
Apogee altitude
1,078.306 km
Perigee altitude
1,013.979 km
Semi-major axis
7,424.28 km
Eccentricity
0.00433
Inclination
99.7555°
RAAN
81.9555°
Arg. of periapsis
279.4135°
True anomaly
80.70035°
Mean anomaly
80.2107°
Eccentric anomaly
80.45548°
Mean motion
3.39283 °/min
Orbital period
106.11 mins
BSTAR
0.000151
Loading maneuver chart data...
Computing Atmospheric mass density...
Loading historical data...
Loading historical data...
Loading historical data...
Loading historical data...
Loading historical data...
Loading historical data...
Loading historical data...

Documentation

Showing up to 5 results
|